EHI
0 0 0 0 0 0 0 0 0 0 0 0 0 0 0 0 2 6 10 30 68 93 96 92 84 70 52 36 24 14 8 4 3 2 2 2 2 4 5 6 9 9 5 2 3 3 2 0 0
0 0 0 0 0 0 0 0 0 0 0 0 0 0 0 0 4 8 15 35 68 89 91 90 88 77 59 43 31 22 14 9 6 5 5 5 5 5 5 6 8 10 7 4 4 4 2 0 0
0 0 0 0 0 0 0 0 0 0 0 0 0 0 1 3 7 14 21 39 67 83 84 89 91 85 70 55 44 35 26 19 15 12 11 10 9 8 7 6 6 8 8 8 7 5 2 1 0
0 0 0 0 0 0 0 0 0 0 0 0 0 1 5 9 15 22 25 36 61 77 81 86 90 89 79 66 56 47 40 34 30 26 21 17 15 13 9 5 4 4 6 8 7 4 3 2 1
0 0 0 0 0 0 0 0 0 0 0 0 0 3 10 18 26 29 24 30 54 75 83 85 88 90 84 75 67 60 54 50 47 41 33 27 23 19 12 5 2 2 2 4 5 4 3 2 1
0 0 0 0 0 0 0 0 0 0 0 0 0 4 15 29 37 36 28 29 51 75 85 86 88 90 86 80 78 74 69 65 62 55 47 40 32 23 15 7 3 1 1 1 3 3 3 2 1
0 0 0 0 0 0 0 0 0 0 0 0 0 6 25 45 52 48 38 34 52 76 86 85 85 85 83 81 81 80 76 73 70 63 55 45 33 21 15 9 4 1 1 1 1 2 2 2 1
0 0 0 0 0 0 0 0 0 0 0 0 0 10 34 55 60 55 47 45 61 80 84 80 77 75 73 72 74 74 71 69 66 59 51 40 24 13 10 8 6 4 1 0 1 1 1 1 0
0 0 0 0 0 0 0 0 0 0 0 0 1 12 34 50 52 52 53 59 73 86 83 71 65 62 57 58 66 66 60 56 51 45 40 29 13 5 4 9 12 7 2 1 1 1 0 0 0
0 0 0 0 0 0 0 0 0 0 0 0 2 12 28 39 43 47 56 67 79 88 83 64 52 48 44 51 64 62 52 45 37 31 28 19 8 3 6 17 21 12 3 1 1 1 0 0 0
0 0 0 0 0 0 0 0 0 0 0 0 1 9 22 32 36 41 53 67 77 82 78 62 48 41 42 56 67 60 48 41 33 28 23 14 7 8 15 27 26 14 4 1 0 0 0 0 0
0 0 0 0 0 0 0 0 0 0 0 0 2 7 17 25 28 34 48 64 74 75 70 62 56 51 54 68 71 57 47 41 37 36 30 17 11 14 24 28 22 12 5 3 2 1 2 3 3
0 0 0 0 0 0 0 0 0 0 0 1 4 8 14 21 25 31 46 63 73 73 68 65 67 67 70 77 73 57 50 45 44 47 41 25 16 18 25 27 20 11 8 9 8 7 8 11 10
0 0 0 0 0 0 0 0 0 0 0 2 5 10 16 21 25 34 47 63 73 74 71 70 75 78 80 80 72 60 55 52 51 54 46 30 23 25 32 37 30 19 19 24 22 18 21 20 17
0 0 0 0 0 0 0 0 0 0 1 3 8 15 20 23 28 37 48 60 71 77 75 73 77 81 79 75 70 62 57 54 54 53 47 34 29 36 46 50 42 30 33 44 39 31 32 28 20
0 0 0 0 0 0 0 0 0 0 2 6 13 20 23 25 31 40 50 61 72 77 75 71 73 76 73 68 64 57 51 49 49 49 45 38 37 45 52 52 46 40 44 50 45 38 36 29 22
0 0 0 0 0 0 0 0 0 0 4 11 20 25 24 26 34 45 55 66 74 78 75 71 70 70 67 62 57 51 45 44 45 44 42 39 40 45 47 46 47 47 48 47 42 41 37 27 21
0 0 0 0 0 0 0 0 1 1 6 15 26 30 30 32 39 48 58 67 74 75 73 71 69 68 66 61 57 52 45 43 43 41 37 36 37 38 38 40 46 49 49 44 41 39 34 25 18
0 0 0 0 0 0 0 1 3 3 7 18 30 36 38 40 44 49 54 61 67 68 66 67 68 69 67 63 59 53 46 41 39 37 34 31 30 30 30 33 39 42 43 40 34 29 25 19 15
0 0 0 0 0 0 0 1 4 7 12 22 34 41 42 44 48 49 49 52 58 60 59 61 65 67 65 61 56 50 41 34 30 28 27 24 23 23 24 27 30 32 34 32 26 20 15 10 8
0 0 0 0 0 0 0 1 5 12 19 28 37 42 42 45 49 47 44 44 47 52 55 56 59 60 58 56 51 43 35 27 22 19 17 14 14 14 15 16 20 22 23 22 20 16 11 5 2
0 0 0 0 0 0 0 1 5 14 23 31 39 41 39 40 41 39 36 35 36 43 48 50 50 50 48 47 43 37 31 25 17 12 9 6 5 5 5 6 8 11 11 10 10 9 6 2 0
0 0 0 0 0 0 0 0 4 13 23 31 37 37 31 27 26 27 27 27 28 32 37 39 39 38 37 36 34 30 25 20 13 8 5 2 1 0 1 1 2 2 3 2 3 3 2 1 0
0 0 0 0 0 0 0 0 3 10 20 28 34 32 23 17 16 16 16 17 18 21 24 26 27 27 27 27 24 20 17 12 7 3 1 0 0 0 0 0 0 0 0 0 0 0 0 0 0
0 0 0 0 0 0 0 0 3 9 16 24 30 28 19 13 10 8 6 5 7 10 12 13 15 16 16 16 13 10 8 6 2 1 0 0 0 0 0 0 0 0 0 0 0 0 0 0 0
0 0 0 0 0 0 0 1 6 11 16 22 27 24 16 11 7 4 1 0 1 2 3 4 5 5 5 5 4 3 3 2 0 0 0 0 0 0 0 0 0 0 0 0 0 0 0 0 0
0 0 0 0 0 0 0 1 7 12 14 17 19 18 13 7 4 2 1 0 0 0 0 0 0 0 0 0 1 1 1 0 0 0 0 0 0 0 0 0 0 0 0 0 0 0 0 0 0
0 0 0 0 0 0 0 1 5 9 10 11 13 13 9 4 1 1 0 0 0 0 0 0 0 0 0 0 0 0 0 0 0 0 0 0 0 0 0 0 0 0 0 0 0 0 0 0 0
0 0 0 0 0 0 0 1 3 6 8 10 10 8 4 1 0 0 0 0 0 0 0 0 0 0 0 0 0 0 0 0 0 0 0 0 0 0 0 0 0 0 0 0 0 0 0 0 0
0 0 0 0 0 0 0 0 2 4 7 10 10 6 2 1 0 0 0 0 0 0 0 0 0 0 0 0 0 0 0 0 0 0 0 0 0 0 0 0 0 0 0 0 0 0 0 0 0
Wind_Speed
11 14 12 10 9 11 18 19 10 4 3 2 3 4 5 6 7 8 7 8 16 20 18 17 16 17 17 17 17 16 16 15 14 13 12 12 12 11 11 11 11 11 11 11 11 11 11 10 10
11 15 12 9 11 14 16 14 8 2 6 3 3 1 1 6 10 11 9 10 18 20 17 16 17 17 17 17 17 16 16 16 15 14 13 12 12 11 11 11 11 10 11 11 11 11 11 10 10
12 17 10 10 16 17 16 6 2 2 5 2 1 1 1 5 9 9 10 13 17 18 17 17 18 17 17 17 17 17 17 16 15 14 14 13 12 11 10 11 11 10 10 10 11 11 10 10 9
10 10 9 11 18 21 21 12 4 4 3 4 3 2 3 7 7 11 13 13 16 18 18 18 17 17 17 17 17 17 17 16 15 15 14 13 12 11 10 11 11 10 10 10 10 10 10 9 9
11 9 13 15 20 20 18 13 6 6 5 4 3 3 5 8 10 14 12 12 15 16 17 18 17 16 16 16 16 16 16 15 15 14 13 12 11 10 10 10 10 10 10 10 10 9 9 8 7
10 10 13 16 20 20 18 13 8 8 8 7 6 5 5 11 10 11 12 11 14 17 18 16 17 18 16 16 15 15 15 15 14 13 13 12 11 10 10 10 10 10 10 10 10 9 8 7 6
12 13 16 19 18 17 13 8 8 8 10 9 6 6 6 11 10 9 11 11 13 16 18 15 15 15 16 15 15 15 14 14 14 13 13 12 12 11 11 10 10 10 9 10 10 9 8 7 6
12 13 18 19 18 17 10 5 5 8 10 9 5 4 5 11 10 10 10 11 13 15 16 15 15 14 14 13 15 15 15 14 14 14 14 13 13 12 12 11 10 10 10 10 9 9 8 7 6
15 13 15 18 16 12 7 5 5 6 9 10 7 2 10 14 12 11 10 10 11 14 15 15 16 15 14 14 15 15 15 13 14 13 14 12 9 10 10 11 12 11 11 10 10 9 8 8 7
12 12 18 15 11 11 11 8 6 7 9 11 10 6 11 13 12 12 11 12 14 15 16 15 15 15 14 12 12 10 10 11 10 10 11 9 7 7 10 13 14 12 11 11 10 10 9 8 6
14 17 17 15 9 9 12 12 10 10 11 10 10 8 10 11 11 11 11 12 12 13 13 14 13 12 12 9 9 7 7 8 9 10 10 7 6 5 6 7 8 8 10 8 9 9 7 8 6
16 16 15 13 10 8 10 12 13 12 12 11 10 6 4 8 9 11 11 12 11 12 12 11 13 12 11 9 8 6 5 6 7 7 9 7 4 5 6 6 8 7 6 7 7 6 8 7 5
14 14 15 13 11 11 12 13 13 13 12 10 9 7 5 6 7 8 11 11 12 11 12 11 10 10 7 7 6 7 5 7 6 6 7 6 4 4 4 4 5 7 7 8 7 6 6 4 2
12 13 14 13 12 13 13 14 14 14 12 10 9 8 6 5 5 4 6 8 10 11 10 9 9 8 7 6 5 4 4 5 5 5 7 6 4 2 2 3 3 4 3 4 4 4 4 3 1
12 14 15 15 16 16 14 15 16 13 11 10 9 7 7 5 3 2 4 3 7 9 8 7 9 9 6 7 6 3 3 5 3 4 5 5 4 3 2 1 2 2 1 2 1 3 3 3 2
12 15 17 19 17 12 10 13 12 8 9 9 7 5 3 1 1 3 5 5 5 9 8 5 7 9 7 5 4 3 2 3 3 3 3 5 4 4 2 2 3 3 1 2 1 1 2 2 2
16 16 18 12 10 8 9 11 7 2 5 6 4 3 3 2 4 5 5 6 5 7 8 6 3 6 7 6 4 3 2 1 2 2 1 2 2 2 2 2 2 2 1 2 2 2 2 2 2
12 12 12 7 5 7 9 10 8 7 7 5 3 2 2 6 7 8 9 8 7 6 7 7 4 3 4 4 4 2 2 2 2 2 1 1 1 2 2 2 2 2 2 2 2 3 2 2 2
13 13 13 10 7 7 9 11 8 7 5 3 1 3 6 7 9 10 9 8 8 6 5 5 5 4 3 3 4 3 3 2 3 3 2 1 2 2 2 2 2 2 2 3 4 3 4 3 2
12 13 13 12 10 8 9 11 8 6 4 2 5 5 6 8 10 10 10 10 9 6 4 4 3 4 3 2 3 3 3 3 3 3 4 4 2 1 2 1 1 1 2 2 3 3 3 3 2
12 13 13 13 11 11 13 14 12 5 3 5 6 7 7 9 9 10 11 11 9 8 6 3 3 3 3 2 3 4 4 4 3 4 4 6 6 5 5 4 3 2 2 3 2 2 3 3 2
12 12 12 14 13 12 13 12 9 6 7 6 5 7 8 10 10 11 11 12 12 10 8 8 6 5 4 3 3 5 4 4 5 5 6 8 9 9 8 7 7 6 5 5 4 3 2 3 3
13 13 12 14 15 15 13 11 8 4 6 7 7 7 9 9 10 11 11 11 11 10 9 8 8 7 7 6 5 5 6 6 6 7 9 9 9 10 10 9 8 8 6 6 7 6 5 4 3
12 14 14 14 13 15 11 10 8 4 9 9 9 9 9 9 10 10 10 11 11 11 10 9 9 9 8 7 7 8 9 9 10 10 9 8 7 8 10 10 9 8 7 8 8 8 9 7 7
10 11 9 9 8 10 7 7 2 3 9 13 14 12 10 9 9 10 11 12 12 12 12 11 12 11 10 10 10 10 10 11 11 10 9 8 7 7 8 8 8 8 8 8 9 9 9 9 8
9 11 9 9 9 8 3 3 0 5 9 13 15 13 11 11 10 11 11 11 11 12 12 12 12 12 11 12 12 11 11 9 9 11 9 9 7 7 8 9 9 9 9 9 8 8 7 7 8
11 11 10 10 12 10 5 1 4 7 11 12 14 13 12 11 11 11 11 11 11 11 11 11 12 12 12 12 13 13 13 12 12 11 10 9 8 8 9 9 9 8 8 7 7 7 7 6 6
10 10 6 7 8 9 5 2 2 7 9 10 12 13 12 12 11 12 11 11 11 11 11 11 12 12 12 12 11 11 12 12 11 11 12 11 10 8 8 8 8 8 7 6 6 6 6 7 7
7 9 8 7 7 7 6 2 1 6 10 12 12 12 12 12 11 11 10 11 11 11 11 11 11 12 11 12 12 12 12 12 11 11 10 9 8 7 7 7 7 7 7 6 5 6 6 7 6
9 9 7 6 8 8 6 1 2 4 9 11 13 12 11 11 11 11 11 11 11 11 11 11 10 11 11 11 12 12 11 11 11 11 9 8 7 7 6 6 6 7 6 5 5 6 6 6 6
Wind_Direction
272 260 252 256 249 244 253 261 251 190 130 77 50 22 12 37 64 116 171 172 129 129 137 141 142 146 149 150 148 147 145 143 141 139 136 134 131 126 122 119 116 116 116 117 117 117 117 115 114
272 267 248 248 253 250 250 253 255 169 111 105 107 107 14 73 90 117 143 138 130 133 143 145 143 147 150 151 150 149 148 147 146 144 142 140 137 133 129 126 123 121 120 121 121 120 120 120 120
262 264 254 243 245 256 270 295 310 143 128 186 207 153 82 95 101 116 134 141 135 137 145 139 147 148 151 152 152 152 151 150 149 148 147 145 142 138 135 133 129 126 124 124 124 124 124 123 123
247 236 237 246 247 249 257 257 224 226 192 197 226 194 128 97 110 124 137 149 142 143 142 142 149 149 152 154 154 155 154 152 152 152 150 148 146 142 141 138 136 133 131 128 128 129 130 128 128
238 244 234 245 254 260 264 264 225 234 231 221 234 234 124 104 114 122 143 153 146 142 137 146 148 148 152 154 155 155 155 153 153 153 152 151 148 146 146 144 141 139 138 135 132 132 130 130 131
229 234 242 247 252 254 256 260 253 244 254 242 228 237 149 129 127 135 144 155 147 140 138 144 149 150 152 155 155 154 155 154 154 153 153 153 151 150 151 150 148 147 145 142 139 138 136 135 137
243 246 250 257 265 267 260 261 263 258 257 255 241 237 139 131 126 132 140 156 145 139 138 148 154 154 155 154 154 154 155 155 154 154 155 156 156 157 158 156 155 154 151 149 147 147 148 149 155
243 260 265 265 268 274 282 288 276 277 275 278 274 250 139 126 127 136 151 156 145 142 144 153 160 159 160 159 158 157 157 158 155 157 160 162 163 166 166 165 165 163 160 158 157 159 162 166 176
241 253 261 263 269 276 284 281 273 263 269 277 277 236 136 136 141 154 162 157 153 149 150 161 164 164 167 165 161 159 162 162 160 163 166 166 174 175 177 178 165 170 169 169 170 174 180 183 197
231 245 252 263 298 312 317 310 287 272 249 251 250 213 147 149 157 170 170 171 169 162 162 168 170 167 173 168 156 166 170 167 175 171 172 184 187 186 185 163 166 174 177 178 183 189 195 207 207
230 245 265 284 300 305 302 299 290 276 266 259 254 228 175 170 176 178 176 178 172 167 168 168 169 166 171 160 156 171 176 167 188 177 178 194 193 187 166 157 164 177 184 190 187 197 212 214 217
235 253 267 284 299 294 282 280 280 272 269 273 275 273 198 188 196 187 177 175 170 176 173 174 172 169 175 159 160 169 174 166 185 176 180 194 201 193 165 173 174 183 191 197 183 205 210 215 211
238 253 264 264 266 264 265 267 270 271 271 269 275 279 259 243 225 196 175 171 168 172 171 177 172 164 164 145 165 176 171 170 182 169 184 195 196 210 176 185 181 194 192 190 189 202 191 186 196
266 264 265 264 259 256 256 260 258 256 254 255 257 259 259 259 256 205 165 162 160 156 163 164 157 155 156 149 165 165 159 158 170 161 183 196 192 208 206 186 184 214 189 176 184 181 152 152 141
268 277 273 262 251 246 248 253 250 246 242 239 242 247 246 250 248 169 127 136 154 144 146 152 149 149 155 153 158 161 154 158 168 168 178 194 199 187 217 192 194 227 187 138 155 167 140 143 145
261 257 257 249 228 226 238 259 267 239 221 228 236 255 248 206 51 75 112 130 133 134 136 146 162 150 150 141 149 148 167 157 155 173 179 192 206 177 178 216 211 214 193 128 137 145 125 130 125
243 244 253 248 193 209 234 258 269 227 225 221 230 249 262 99 81 62 65 78 98 120 126 127 136 142 151 148 148 143 134 132 138 127 149 190 203 165 177 217 225 202 178 150 187 148 127 132 133
266 253 255 260 205 212 237 251 254 238 225 210 209 211 47 58 59 56 54 49 60 90 113 122 124 130 147 148 143 142 141 152 121 101 119 206 212 187 193 216 204 192 173 158 150 137 124 136 146
297 300 300 296 284 258 256 260 254 254 241 225 151 99 76 65 54 56 50 50 53 56 88 112 139 146 145 153 160 165 165 145 112 102 96 171 206 191 195 217 200 190 186 171 160 154 149 153 140
283 280 279 277 268 262 266 269 258 243 231 162 101 76 79 74 59 49 44 45 46 43 62 89 111 133 146 154 155 149 132 109 97 79 59 36 44 93 169 162 149 153 151 145 159 158 152 143 142
263 269 279 289 290 271 263 255 246 214 128 90 88 79 64 66 60 51 43 38 36 35 40 58 74 84 94 121 130 125 110 100 87 73 61 39 40 48 54 63 72 79 96 90 78 125 151 150 120
268 272 278 280 278 272 267 271 261 190 141 121 93 79 71 68 62 52 46 38 33 27 32 41 52 60 61 75 105 121 119 108 85 80 70 56 47 49 52 56 59 63 68 74 59 55 79 117 133
279 289 287 281 279 274 274 270 273 167 152 131 105 89 81 71 66 59 51 44 37 30 36 43 46 50 56 65 85 98 96 94 90 83 74 64 51 47 51 56 59 60 63 67 65 57 59 67 88
278 284 279 274 272 268 274 280 270 193 165 152 143 123 101 89 78 70 61 53 43 35 38 46 52 53 52 66 75 88 99 101 96 88 82 70 60 52 51 57 59 60 62 63 66 66 63 61 60
267 275 277 275 267 271 310 291 273 181 163 161 148 130 119 104 90 75 63 56 48 40 39 45 55 53 51 59 65 73 88 95 96 95 88 83 74 63 56 60 62 61 62 65 68 69 67 64 64
271 268 269 279 284 284 276 268 67 115 116 130 129 125 116 101 89 77 68 62 56 50 45 49 57 58 59 64 67 69 75 80 80 82 87 83 79 74 70 69 68 67 66 70 70 72 71 71 70
271 269 281 283 280 281 267 209 91 106 118 128 128 122 112 102 91 82 74 67 62 57 53 56 63 65 65 69 74 75 77 80 82 84 83 82 80 81 77 76 74 71 68 70 72 71 68 67 68
263 283 291 286 291 291 282 230 167 165 148 138 133 124 116 107 97 89 81 76 70 67 64 63 66 70 70 72 75 80 80 82 84 84 83 83 81 81 81 79 78 75 70 70 77 79 77 77 73
269 264 270 281 290 292 293 306 132 177 163 152 137 125 118 108 101 95 89 84 80 76 73 71 71 73 73 76 78 79 80 81 82 83 84 86 89 89 88 85 83 81 76 73 77 83 77 74 72
292 288 285 282 290 295 300 12 41 136 139 135 126 117 109 104 99 94 90 87 82 79 78 76 76 78 78 81 83 83 84 85 85 84 82 81 80 79 79 81 84 85 82 73 73 79 77 76 72